This is the latest recevied weather packets stored in our database for station/object SR9NLI. If no packets are shown the sender has not sent any weather packets the latest 1 day(s).
| Time | Temp. | Humidity | Pressure | Rain* | Wind** | Luminosity | Snow |
|---|---|---|---|---|---|---|---|
| 1777966805 | 21.11° C | 100% | 952.2 hPa | - | 2.68 m/s, 165° | - | - |
| 1777966744 | 21.11° C | 100% | 952.2 hPa | - | 3.13 m/s, 164° | - | - |
| 1777966683 | 21.11° C | 100% | 952.5 hPa | - | 2.68 m/s, 165° | - | - |
| 1777966560 | 21.11° C | 100% | 952.4 hPa | - | 1.79 m/s, 188° | - | - |
| 1777966436 | 21.11° C | 100% | 952.3 hPa | - | 2.68 m/s, 175° | - | - |
| 1777966376 | 21.11° C | 100% | 952.3 hPa | - | 2.68 m/s, 172° | - | - |
| 1777966313 | 21.11° C | 100% | 952.4 hPa | - | 2.68 m/s, 169° | - | - |
| 1777966189 | 21.11° C | 100% | 952.3 hPa | - | 1.79 m/s, 197° | - | - |
| 1777966067 | 21.11° C | 100% | 952.3 hPa | - | 1.79 m/s, 171° | - | - |
| 1777966006 | 21.11° C | 100% | 952.6 hPa | - | 1.79 m/s, 165° | - | - |
| 1777965943 | 21.11° C | 100% | 952.4 hPa | - | 1.79 m/s, 165° | - | - |
| 1777965820 | 21.11° C | 100% | 952.4 hPa | - | 2.24 m/s, 187° | - | - |
| 1777965697 | 20.56° C | 100% | 952.3 hPa | - | 2.24 m/s, 193° | - | - |
| 1777965636 | 21.11° C | 100% | 952.4 hPa | - | 2.24 m/s, 190° | - | - |
| 1777965574 | 20.56° C | 100% | 952.4 hPa | - | 2.68 m/s, 179° | - | - |
| 1777965452 | 20.56° C | 100% | 952.4 hPa | - | 3.13 m/s, 184° | - | - |
| 1777965329 | 20.56° C | 100% | 952.3 hPa | - | 2.68 m/s, 193° | - | - |
| 1777965268 | 20.56° C | 100% | 952.3 hPa | - | 3.13 m/s, 188° | - | - |
| 1777965206 | 20.56° C | 100% | 952.5 hPa | - | 3.13 m/s, 182° | - | - |
| 1777965083 | 20.56° C | 100% | 952 hPa | - | 3.13 m/s, 168° | - | - |
| 1777964961 | 20.56° C | 100% | 952.4 hPa | - | 1.79 m/s, 164° | - | - |
| 1777964900 | 20° C | 100% | 952.2 hPa | - | 1.79 m/s, 168° | - | - |
| 1777964838 | 20.56° C | 100% | 952.4 hPa | - | 2.24 m/s, 180° | - | - |
| 1777964715 | 20.56° C | 100% | 952.4 hPa | - | 2.24 m/s, 180° | - | - |
| 1777964592 | 20.56° C | 100% | 952.6 hPa | - | 1.79 m/s, 199° | - | - |
* Rain since midnight (hover to see other rain measurements)
** Current wind speed in m/s (hover to see current wind gust speed)